If you wish to contribute or participate in the discussions about articles you are invited to join SKYbrary as a registered user

 Actions

Arroyo Barril International Airport

From SKYbrary Wiki

MDAB
Airport
ICAO: MDAB – IATA: EPS
Summary
Name Arroyo Barril International Airport
Region South America and Caribbean
Territory Dominican Republic DO.gif
Location Los Robalos, Samaná Province
Serving Samaná
Elevation 17.374 m
57 ft17.374 m
Coordinates 19° 12' 5.88" N, 69° 25' 57.18" W
Runways
Designator Length Width Surface ROPS
11/29 1167 m3,828.74 ft
25 m82.021 ft
ASP /


METAR
Observation MDAB 181900Z 09010KT 9999 SCT020 30/24 Q1018
Station Arroyp Barril Internaional Airport
Date/Time 18 February 2019 19:00:00
Wind direction 90°
Wind speed 10 kts
Lowest cloud amount scattered clouds
Temperature 30°C
Dew point 24°C
Humidity 70%
QNH 1018 hPa
Weather condition n/a

Arroyo Barril Airport is located in the Samaná province of the Dominican Republic. The airport is used for domestic flights.

Climatology

Tropical rainforest climate (Köppen climate classification Af)

Maps

Terrain

Loading map...

Airport Layout

Loading map...


Accidents & Serious Incidents at or in vicinity of MDAB

None on SKYbrary